Location: Ackerson Creek
(37.8210°N, 119.8757°W)
Time: 15:09:35
(UTC+00:00)

ARIANE 5 R/B - Pass Details

Date: 13 April 2024
Orbit: 747 x 793 km, 98.8° (Epoch: 23 May)

Event Time Altitude Azimuth Distance (km) Brightness Sun altitude
Rises 12:50:04 0° 16° (NNE) 3,299 6.3 -7.7°
Reaches altitude 10° 12:52:25 10° 19° (NNE) 2,367 5.6 -7.3°
Maximum altitude 12:57:38 67° 102° (ESE) 857 3.0 -6.3°
Drops below altitude 10° 13:02:47 10° 185° (S) 2,345 4.8 -5.3°
Sets 13:05:06 0° 188° (S) 3,266 5.5 -4.9°
